Location: Azul
(36.7830°S, 59.8500°W)
Time: 12:36:39
(UTC-03:00)

XW-2C - Visible Passes

Search period start: 15 September 2024 00:00
Search period end: 25 September 2024 00:00
Orbit: 409 x 415 km, 97.5° (Epoch: 15 September)

Date Brightness Start Highest point End Pass type
(mag) Time Alt. Az. Time Alt. Az. Time Alt. Az.
15 Sep ? 20:16:10 10° S 20:19:25 88° WSW 20:22:36 10° NNW visible
16 Sep ? 19:30:28 10° SE 19:32:41 17° E 19:34:52 10° NE visible
16 Sep ? 21:02:15 10° SSW 21:04:32 18° WSW 21:06:47 10° WNW visible
17 Sep ? 20:14:43 10° SSE 20:17:58 86° ENE 20:21:08 10° NNW visible
18 Sep ? 19:28:52 10° SE 19:30:56 16° E 19:33:00 10° NE visible
18 Sep ? 21:00:25 10° SSW 21:02:48 19° WSW 21:05:09 10° WNW visible
19 Sep ? 20:12:43 10° SSE 20:15:57 79° ENE 20:19:07 10° N visible
20 Sep ? 19:26:45 10° ESE 19:28:38 15° E 19:30:31 10° NE visible
20 Sep ? 20:58:02 10° SSW 21:00:31 21° WSW 21:02:58 10° WNW visible
21 Sep ? 20:10:09 10° SSE 20:13:22 70° E 20:16:33 10° N visible
22 Sep ? 19:24:09 10° ESE 19:25:46 13° E 19:27:24 10° NE visible
22 Sep ? 20:55:03 10° SSW 20:57:41 23° WSW 21:00:16 10° NW visible
23 Sep ? 20:07:03 10° SSE 20:10:14 60° E 20:13:23 10° N visible
24 Sep ? 19:21:08 10° ESE 19:22:21 12° E 19:23:33 10° ENE visible
24 Sep ? 20:51:33 10° SSW 20:54:17 26° WSW 20:57:00 10° NW visible
